Location: Most
(50.5133°N, 13.6207°E)
Time: 13:42:31
(UTC+01:00)

UNHA 3 R/B - Pass Details

Date: 27 September 2020
Orbit: 479 x 556 km, 97.4° (Epoch: 27 October)

Event Time Altitude Azimuth Distance (km) Brightness Sun altitude
Rises 04:09:45 0° 30° (NNE) 2,646 9.8 -26.5°
Reaches altitude 10° 04:12:43 10° 56° (NE) 1,770 8.9 -26.1°
Maximum altitude 04:14:49 14° 89° (E) 1,529 8.2 -25.8°
Drops below altitude 10° 04:16:55 10° 123° (ESE) 1,786 8.2 -25.6°
Enters shadow 04:19:45 - 148° (SSE) 2,626 8.8 -25.2°
